Regional Weather Roundup
Issued by NWS Grand Forks, ND

Home | Current Version | Previous Version | Text Only | Print | Product List | Glossary On
Versions: 1 2 3 4 5 6 7 8 9 10 11 12 13 14 15 16 17 18 19 20 21 22 23 24 25 26 27 28 29 30 31 32 33 34 35 36 37 38 39 40 41 42 43 44 45 46 47 48 49 50
000
ASUS43 KFGF 310531
RWRFGF
PRAIRIE TO PINES  WEATHER ROUNDUP
NATIONAL WEATHER SERVICE EASTERN NORTH DAKOTA/GRAND FORKS ND
1200 AM CDT SAT JUL 31 2021

 **SATELLITE DATA USED TO AUGMENT SKY COVER AT AUTOMATED STATIONS**
 *****  WEATHER ACROSS EASTERN NORTH DAKOTA  *****

CITY           SKY/WX    TMP DP  RH WIND       PRES   REMARKS
GRAND FORKS    FAIR      70  57  63 NW5       29.99R HAZE
GRAND FRKS AFB PTCLDY    68  64  88 NW7       30.01R HAZE
GRAND FRKS NWS   N/A     71  59  64 NW6       29.96R
DEVILS LAKE    FAIR      73  60  63 N13       30.07R
FARGO          FAIR      70  61  73 SW13      30.02F HAZE
WAHPETON ARPT  CLOUDY    61  59  94 S6        30.05F FOG
$$

 ***** WEATHER ACROSS CENTRAL AND WESTERN NORTH DAKOTA  *****

CITY           SKY/WX    TMP DP  RH WIND       PRES   REMARKS
BISMARCK       MOCLDY    74  61  63 W5        30.11R SMOKE
MINOT          FAIR      70  51  51 NW10      30.11R
JAMESTOWN      FAIR      71  61  70 W9        30.05S HAZE
MINOT AFB      FAIR      64  41  42 N9        30.10R
GARRISON         N/A     68  56  65 N9        30.12R
WILLISTON      NOT AVBL
DICKINSON      FAIR      70  55  59 N5        30.17R HAZE
HETTINGER      FAIR      67  59  75 SW3       30.19R HAZE
$$

 *****  OTHER AIRPORT OBSERVATIONS IN OUR AREA  *****

CITY           SKY/WX    TMP DP  RH WIND       PRES   REMARKS
WALHALLA       FAIR      68  68 100 W5        30.04S
GRAFTON AIRPOR FAIR      72  57  60 N9          N/A
VALLEY CITY AR FAIR      66  66 100 S8        30.06S FOG
CANDO            N/A     64  64 100 N7        30.11R FOG
CAVALIER APRT  MOCLDY    70  57  64 NW7       30.03R
GWINNER        CLOUDY    66  66 100 SW13      30.07F FOG
SHEYENNE NWR     N/A     65  62  91 SW5       29.95
ROLLA          FAIR      63  52  67 NW8       30.13R
 ***** THE ABOVE OBSERVATIONS ARE NON NWS ARE NOT QUALITY
       CONTROLLED AND MAY MIS-REPORT RAIN FOR SNOW...
$$

  *****  WEATHER ACROSS NORTHERN MINNESOTA  *****

CITY           SKY/WX    TMP DP  RH WIND       PRES   REMARKS
FLAG ISLAND    NOT AVBL
WARROAD        NOT AVBL
ROSEAU         NOT AVBL
HALLOCK        NOT AVBL
THF RVR FALLS  FAIR      70  57  64 W8        30.01R HAZE
BAUDETTE       MOCLDY    63  61  93 CALM      29.99R
WASKISH        NOT AVBL
CROOKSTON      NOT AVBL
STEPHEN NDAWN    N/A     66  57  72 VRB5        N/A
GREENBUSH NDAW   N/A     61  59  94 VRB3        N/A
$$
  *****  WEATHER ACROSS CENTRAL AND WEST MINNESOTA  *****

CITY           SKY/WX    TMP DP  RH WIND       PRES   REMARKS
FOSSTON        NOT AVBL
BEMIDJI        NOT AVBL
PARK RAPIDS    CLOUDY    63  58  83 SW7       30.05S HAZE
ELBOW LAKE     NOT AVBL
WADENA         NOT AVBL
DETROIT LAKES  NOT AVBL
MOORHEAD       NOT AVBL
FERGUS FALLS   NOT AVBL
MORRIS MN      NOT AVBL
STAPLES        NOT AVBL
$$
  *****  WEATHER ELSEWHERE ACROSS MINNESOTA  *****

CITY           SKY/WX    TMP DP  RH WIND       PRES   REMARKS
DULUTH         CLOUDY    67  59  75 W13       30.02S SMOKE
INTRNTL FALLS  LGT RAIN  62  60  93 E6        29.97F
ELY            NOT AVBL
CLOQUET        NOT AVBL
WHEATON        NOT AVBL
BRAINERD       CLOUDY    64  60  87 SW5       30.06S FOG
HIBBING        CLOUDY    65  58  78 SW3       30.00S HAZE
ALEXANDRIA     FAIR      62  59  90 SW8       30.10F
SAINT CLOUD    FAIR      62  59  90 SW7       30.08S FOG
MINNEAPOLIS    FAIR      68  58  70 W9        30.08F SMOKE
$$

  *****  WEATHER ACROSS SOUTH DAKOTA  *****

CITY           SKY/WX    TMP DP  RH WIND       PRES   REMARKS
SIOUX FALLS    FAIR      62  59  90 NE3       30.13F FOG
BROOKINGS      FAIR      60  59  96 CALM      30.15R FOG
WATERTOWN      FAIR      62  60  93 W7        30.13S FOG
HURON          FAIR      62  61  96 W3        30.14F FOG
SISSETON         N/A     68  62  81 W8        30.08S
ABERDEEN       FAIR      63  60  90 SW6       30.12S FOG
MITCHELL       FOG       60  59  96 CALM      30.14F VSB 1/4
PIERRE         FAIR      63  60  90 CALM      30.15R FOG
MOBRIDGE       CLOUDY    69  60  73 SW3       30.12F HAZE
RAPID CITY     FAIR      62  60  93 CALM      30.22F SMOKE
$$

  *****  SOME WEATHER IN NEARBY STATES *****

CITY           SKY/WX    TMP DP  RH WIND       PRES   REMARKS
GLASGOW MT     FAIR      77  44  30 E12       30.18S
GREAT FALLS MT FAIR      78  48  34 E10       30.19R
CHEYENNE WY    MOCLDY    64  57  78 N8        30.36S
SCOTTSBLUFF NE FAIR      73  62  68 W7        30.24R
OMAHA NE       CLOUDY    73  68  84 NE7       30.03F
DES MOINES IA  RAIN      68  67  96 NE7       30.08R FOG
DAVENPORT IA   MOCLDY    66  62  87 E7        30.13F
CHICAGO IL     CLOUDY    65  56  72 NE6       30.11F
EAU CLAIRE WI  FAIR      66  62  87 SW6       30.07S
LA CROSSE WI   FAIR      66  62  87 S8        30.09F
$$

  *****  SOME NATIONAL WEATHER *****

CITY           SKY/WX    TMP DP  RH WIND       PRES   REMARKS
LA GUARDIA NY  FAIR      68  47  46 NW16      29.95S
RALEIGH NC     FAIR      78  71  79 CALM      29.93S
ATLANTA GA     MOCLDY    81  71  71 W6        30.01F
NEW ORLEANS LA PTCLDY    84  79  85 CALM      30.04S HX  96
OKLAHOMA CITY  FAIR      78  70  76 S6        30.06F
ALBUQUERQUE NM FAIR      76  47  35 SE6       30.27S
SALT LAKE CITY MOCLDY    78  59  51 CALM      30.15R
LOS ANGELES CA MOCLDY    62  59  90 W8        30.00R
BOISE ID       FAIR      89  50  26 E13G20    30.00S
SEATTLE WA     FAIR      81  53  37 N8        29.96R
$$

*** WEATHER ACROSS MANITOBA...SASKATCHEWAN AND ONTARIO ***
                ***ONTARIO***

CITY           SKY/WX    TMP DP  RH WIND       PRES   REMARKS
GERALDTON      CLOUDY    55  55 100 VRB2      29.92F
THUNDER BAY    TSTM      61  59  94 NW3       29.94R
SIOUX LOOKOUT  MOCLDY    59  57  94 W3        29.93F
TORONTO        PTCLDY    57  48  72 N7        30.05S
BIG TROUT LK     N/A     55  55 100 NW5       29.88S FOG
PICKLE LAKE    MOCLDY    61  55  82 NW5       29.90R
DRYDEN         PTCLDY    61  61 100 SW7       29.95S FOG
KENORA         MOCLDY    63  61  94 N6        29.99R
$$
                *** MANITOBA***

CITY           SKY/WX    TMP DP  RH WIND       PRES   REMARKS
BRANDON        PTCLDY    61  55  82 N8        30.11R
DAUPHIN        CLEAR     61 N/A N/A W7        30.11R
ISLAND LAKE    CLEAR     66  52  59 N9        29.97R
PILOT MOUND      N/A     66  54  63 N6          N/A
THE PAS        CLEAR     66  55  68 MISG      30.13R
THOMPSON       CLEAR     54  46  76 NW2       30.08R
WINNIPEG       CLEAR     59  55  88 W6        30.02R
LYNN LAKE      CLEAR     57  48  72 NW7       30.14R
CHURCHILL      CLOUDY    50  48  93 N15G23    30.01S
GILLAM         MOCLDY    61  52  72 N7        30.01S
$$
                ***SASKATCHEWAN***

CITY           SKY/WX    TMP DP  RH WIND       PRES   REMARKS
ESTEVAN        CLEAR     61  50  67 N6        30.17R
KINDERSLEY     MOCLDY    63  52  67 E7        30.23R
LLOYDMINSTER   CLEAR     66  52  59 VRB2      30.24R
PRINCE ALBERT  PTCLDY    63  55  77 W2        30.21R
REGINA         PTCLDY    70  46  43 NE7       30.19S
YORKTON        CLEAR     63  48  59 NW5       30.17R
N. BATTLEFORD  CLEAR     70  46  43 NE7       30.24R
LA RONGE       PTCLDY    59  54  82 CALM      30.19R
SASKATOON      PTCLDY    66  48  52 NE6       30.20R
SWIFT CURRENT  MOCLDY    72  52  49 E7        30.23S
$$
NOTE: THESE ARE AUTOMATED STATIONS WITH LIMITED QUALITY CONTROL
      "FAIR" INDICATES FEW OR NO CLOUDS BELOW 12,000 FEET WITH NO
      SIGNIFICANT WEATHER AND/OR OBSTRUCTIONS TO VISIBILITY.
      SKY/WX - SKY CONDITION AND SIGNIFICANT WEATHER.
      TMP - AIR TEMPERATURE.    DP   - DEWPOINT TEMPERATURE.
      RH  - RELATIVE HUMIDITY.  PRES - PRESSURE.
      HX  - HEAT INDEX.         WCI  - WIND CHILL INDEX.
$



USA.gov is the U.S. government's official web portal to all federal, state and local government web resources and services.